This is the latest recevied weather packets stored in our database for station/object KR4ELZ. If no packets are shown the sender has not sent any weather packets the latest 10 day(s).
| Time | Temp. | Humidity | Pressure | Rain* | Wind** | Luminosity | Snow |
|---|---|---|---|---|---|---|---|
| 1777670851 | 18.89° C | 51% | 1013.5 hPa | 0 mm | - | 133 W/m² | - |
| 1777670547 | 19.44° C | 53% | 1013.3 hPa | 0 mm | - | 194 W/m² | - |
| 1777670245 | 20° C | 51% | 1013.3 hPa | 0 mm | - | 276 W/m² | - |
| 1777669942 | 20° C | 49% | 1013.5 hPa | 0 mm | - | 317 W/m² | - |
| 1777669639 | 19.44° C | 52% | 1013.6 hPa | 0 mm | - | 320 W/m² | - |
| 1777669335 | 18.89° C | 51% | 1013.6 hPa | 0 mm | - | 319 W/m² | - |
| 1777669032 | 18.89° C | 54% | 1013.8 hPa | 0 mm | - | 170 W/m² | - |
| 1777668729 | 18.89° C | 54% | 1013.9 hPa | 0 mm | - | 161 W/m² | - |
| 1777668426 | 18.89° C | 53% | 1014 hPa | 0 mm | - | 233 W/m² | - |
| 1777668122 | 18.89° C | 54% | 1014.2 hPa | 0 mm | - | 206 W/m² | - |
| 1777667818 | 19.44° C | 53% | 1014 hPa | 0 mm | - | 170 W/m² | - |
| 1777667516 | 18.89° C | 57% | 1014.3 hPa | 0 mm | - | 176 W/m² | - |
| 1777667213 | 18.89° C | 53% | 1014.6 hPa | 0 mm | - | 185 W/m² | - |
| 1777666910 | 18.89° C | 51% | 1014.7 hPa | 0 mm | - | 192 W/m² | - |
| 1777666607 | 18.89° C | 56% | 1014.8 hPa | 0 mm | - | 166 W/m² | - |
| 1777666303 | 19.44° C | 51% | 1014.8 hPa | 0 mm | - | 176 W/m² | - |
| 1777666000 | 19.44° C | 52% | 1015 hPa | 0 mm | - | 193 W/m² | - |
| 1777665698 | 19.44° C | 52% | 1015.1 hPa | 0 mm | - | 225 W/m² | - |
| 1777665395 | 19.44° C | 50% | 1015.1 hPa | 0 mm | - | 250 W/m² | - |
| 1777665091 | 19.44° C | 49% | 1015 hPa | 0 mm | - | 258 W/m² | - |
| 1777664786 | 19.44° C | 52% | 1015.3 hPa | 0 mm | - | 291 W/m² | - |
| 1777664482 | 19.44° C | 53% | 1015.2 hPa | 0 mm | - | 275 W/m² | - |
| 1777664179 | 19.44° C | 53% | 1015.3 hPa | 0 mm | - | 286 W/m² | - |
| 1777663878 | 19.44° C | 51% | 1015.4 hPa | 0 mm | - | 243 W/m² | - |
| 1777663574 | 18.89° C | 55% | 1015.7 hPa | 0 mm | - | 251 W/m² | - |
* Rain latest hour (hover to see other rain measurements)
** Current wind speed in m/s (hover to see current wind gust speed)